Weather History for Greenville, AL

Change the Weather History Date:

Saturday, October 22, 2011

  Actual Average Record
Temperature  
Mean Temperature 54 °F -  
Max Temperature 71 °F 76 °F 89 °F (1984)
Min Temperature 36 °F 52 °F 36 °F (1987)
Degree Days  
Heating Degree Days 12    
Growing Degree Days 4 (Base 50)    
Moisture  
Dew Point 37 °F    
Average Humidity 61    
Maximum Humidity 93    
Minimum Humidity 26    
Precipitation  
Precipitation 0.00 in - - ()
Sea Level Pressure  
Sea Level Pressure 30.12 in    
Wind  
Wind Speed 3 mph (North)    
Max Wind Speed 9 mph    
Max Gust Speed 16 mph    
Visibility 10 miles    
Events      
Averages and records for this station are not official NWS values.
T = Trace of Precipitation, MM = Missing Value Source: NWS Daily Summary

Daily Weather History Graph

Daily Weather History Graph

Search for Another Location

Airport:

Trip Planner

Search our weather history database for the weather conditions in past years. The results will help you decide how hot, cold, wet, or windy it might be!

Date:

Astronomy

Oct. 22, 2011 Rise Set
Actual Time 6:54 AM CDT 6:06 PM CDT
Civil Twilight 6:29 AM CDT 6:31 PM CDT
Nautical Twilight 6:01 AM CDT 6:59 PM CDT
Astronomical Twilight 5:33 AM CDT 7:28 PM CDT
Moon 2:08 AM CDT (10/22) 3:09 PM CDT (10/22)
Length of Visible Light 12h 01m
Length of Day
11h 11m
Waning Crescent, 23% of the Moon is Illuminated
Oct 22
Waning Crescent
Oct 26
New
Nov 2
First Quarter
Nov 10
Full
Nov 18
Last Quarter

Hourly Weather History & Observations

Time (CDT) Temp. Windchill Dew Point Humidity Pressure Visibility Wind Dir Wind Speed Gust Speed Precip Events Conditions
12:56 AM 39.9 °F - 36.0 °F 86% 30.13 in 10.0 mi Calm Calm - N/A   Clear
1:56 AM 39.0 °F - 35.1 °F 86% 30.13 in 10.0 mi Calm Calm - N/A   Clear
2:56 AM 42.1 °F 40.2 °F 35.1 °F 76% 30.12 in 10.0 mi NNW 3.5 mph - N/A   Clear
3:56 AM 37.9 °F 35.5 °F 34.0 °F 86% 30.13 in 10.0 mi North 3.5 mph - N/A   Clear
4:56 AM 37.9 °F 35.5 °F 34.0 °F 86% 30.14 in 10.0 mi North 3.5 mph - N/A   Clear
5:56 AM 37.9 °F 35.5 °F 34.0 °F 86% 30.15 in 10.0 mi NNW 3.5 mph - N/A   Clear
6:56 AM 36.0 °F - 34.0 °F 93% 30.17 in 10.0 mi Calm Calm - N/A   Clear
7:56 AM 42.1 °F 40.2 °F 37.0 °F 82% 30.18 in 10.0 mi North 3.5 mph - N/A   Clear
8:56 AM 53.1 °F - 39.9 °F 61% 30.19 in 10.0 mi NNW 3.5 mph - N/A   Clear
9:56 AM 61.0 °F - 36.0 °F 39% 30.18 in 10.0 mi North 9.2 mph - N/A   Clear
10:56 AM 64.0 °F - 34.0 °F 33% 30.17 in 10.0 mi North 9.2 mph - N/A   Clear
11:56 AM 64.9 °F - 34.0 °F 32% 30.15 in 10.0 mi NNE 8.1 mph 16.1 mph N/A   Clear
12:56 PM 66.9 °F - 34.0 °F 30% 30.12 in 10.0 mi North 4.6 mph - N/A   Clear
1:56 PM 70.0 °F - 35.1 °F 28% 30.09 in 10.0 mi North 8.1 mph - N/A   Clear
2:56 PM 70.0 °F - 36.0 °F 29% 30.08 in 10.0 mi North 8.1 mph - N/A   Clear
3:56 PM 71.1 °F - 34.0 °F 26% 30.07 in 10.0 mi North 8.1 mph - N/A   Clear
4:56 PM 70.0 °F - 35.1 °F 28% 30.07 in 10.0 mi North 8.1 mph - N/A   Clear
5:56 PM 66.0 °F - 36.0 °F 33% 30.08 in 10.0 mi North 3.5 mph - N/A   Clear
6:56 PM 57.0 °F - 39.9 °F 53% 30.09 in 10.0 mi Calm Calm - N/A   Clear
7:56 PM 51.1 °F - 42.1 °F 71% 30.10 in 10.0 mi Calm Calm - N/A   Clear
8:56 PM 48.0 °F - 42.1 °F 80% 30.09 in 10.0 mi Calm Calm - N/A   Clear
9:56 PM 46.9 °F - 41.0 °F 80% 30.10 in 10.0 mi Calm Calm - N/A   Clear
10:56 PM 45.0 °F - 39.9 °F 82% 30.09 in 10.0 mi Calm Calm - N/A   Clear
11:56 PM 43.0 °F - 39.0 °F 86% 30.08 in 10.0 mi Calm Calm - N/A   Clear